Date,TemperatureHighF,TemperatureAvgF,TemperatureLowF,DewpointHighF,DewpointAvgF,DewpointLowF,HumidityHigh,HumidityAvg,HumidityLow,PressureMaxIn,PressureMinIn,WindSpeedMaxMPH,WindSpeedAvgMPH,GustSpeedMaxMPH,PrecipitationSumIn
2013-4-1,58.0,47.0,36.5,31.2,22.0,10.8,40,37,34,29.79,29.52,28,7,28,0.04
2013-4-2,43.2,35.9,28.2,15.4,10.4,5.8,38,34,32,29.96,29.78,26,6,29,0.00
2013-4-3,45.4,37.1,29.5,17.5,11.1,5.2,36,34,32,30.17,29.96,25,7,32,0.00
2013-4-4,49.2,38.3,27.0,21.3,13.1,4.2,38,35,33,30.30,30.03,21,5,21,0.00
2013-4-5,59.5,46.5,39.5,29.5,20.6,15.5,38,36,32,30.05,29.60,24,5,27,0.00
2013-4-6,48.8,39.5,31.5,20.0,13.4,8.2,38,34,31,30.27,29.86,25,5,25,0.00
2013-4-7,52.0,41.4,27.0,25.9,17.4,5.3,39,37,35,30.26,29.97,31,5,31,0.00
2013-4-8,66.3,52.7,41.1,37.1,27.1,18.6,40,37,34,30.02,29.91,15,2,16,0.00
2013-4-9,78.1,60.5,46.4,46.7,33.6,22.6,40,36,33,30.00,29.82,22,3,23,0.04
2013-4-10,66.9,52.0,47.4,39.1,27.3,24.1,40,38,36,29.92,29.79,18,3,18,0.14
2013-4-11,60.2,49.7,45.2,33.2,25.4,20.5,40,38,36,30.03,29.74,16,3,16,0.03
2013-4-12,46.1,45.3,42.8,20.6,19.6,17.7,36,36,35,30.04,29.96,23,6,25,0.01
2013-4-16,58.3,48.0,35.5,32.2,23.9,13.6,40,38,37,30.34,30.08,10,4,26,0.00
2013-4-17,68.1,58.3,48.8,37.9,31.3,24.3,39,36,33,30.25,30.05,7,4,20,0.00
2013-4-18,57.6,48.7,38.5,29.5,23.6,16.3,40,37,34,30.34,30.12,9,3,22,0.00
2013-4-19,67.6,57.8,50.5,41.1,33.3,25.9,40,39,38,30.10,29.67,10,5,24,0.00
2013-4-20,59.9,53.6,44.2,35.5,27.9,20.8,40,37,33,30.12,29.59,12,6,27,0.42
2013-4-21,54.2,43.5,35.5,25.7,17.4,10.6,37,35,32,30.60,30.14,8,5,22,0.00
2013-4-22,51.3,44.4,32.7,24.6,19.5,10.5,40,37,34,30.64,30.48,21,4,21,0.00
2013-4-23,46.5,42.8,39.5,22.3,19.0,15.4,39,38,37,30.48,29.99,21,6,21,0.00
2013-4-24,65.2,51.0,42.9,36.9,26.1,19.7,40,38,35,30.01,29.83,23,6,23,0.00
2013-4-25,63.4,53.7,41.1,32.9,27.1,16.8,40,36,32,30.22,29.83,23,4,23,0.04
2013-4-26,61.8,49.8,34.3,33.0,23.7,11.4,39,36,33,30.34,30.20,16,2,16,0.00
2013-4-27,60.2,49.0,36.8,32.2,24.1,14.8,40,37,34,30.35,30.26,15,2,15,0.00
2013-4-28,63.2,51.4,39.3,34.4,25.7,17.0,40,37,33,30.28,30.18,17,2,17,0.00
2013-4-29,52.6,47.4,46.1,28.0,23.7,22.5,40,39,38,30.22,30.17,4,0,5,0.00
2013-4-30,62.3,55.6,42.2,32.9,27.9,17.8,38,34,32,30.29,30.18,13,3,17,0.00